| time (UTC) | temp C | wind direction | speed KPH | gust KPH | rain 1hr cm | rain 24hr cm | rain mn cm | humidity % | barometer mb |
| 20260506051335 | 19 | 181 | 3.2 | 12.9 | 0.00 | 0.00 | 0.00 | 73 | 1013.5 |
| 20260506050337 | 19 | 150 | 1.6 | 3.2 | 0.00 | 0.00 | 0.00 | 72 | 1013.5 |
| 20260506044321 | 20 | 209 | 1.6 | 11.3 | 0.00 | 0.00 | 0.00 | 71 | 1013.7 |
| 20260506043324 | 20 | 146 | 3.2 | 11.3 | 0.00 | 0.00 | 0.00 | 71 | 1013.7 |
| 20260506042327 | 20 | 10 | 1.6 | 9.7 | 0.00 | 0.00 | 0.00 | 71 | 1013.8 |
| 20260506041335 | 20 | 233 | 1.6 | 4.8 | 0.00 | 0.00 | 0.00 | 70 | 1013.6 |
| 20260506040317 | 20 | 177 | 1.6 | 8.0 | 0.00 | 0.00 | 0.00 | 69 | 1013.7 |
| 20260506035322 | 20 | 75 | 1.6 | 3.2 | 0.00 | 0.00 | 0.00 | 68 | 1013.7 |
| 20260506034341 | 20 | 304 | 1.6 | 3.2 | 0.00 | 0.00 | 0.00 | 67 | 1013.7 |
| 20260506033345 | 20 | 115 | 0.0 | 1.6 | 0.00 | 0.00 | 0.00 | 66 | 1013.7 |
| 20260506032328 | 20 | 155 | 0.0 | 3.2 | 0.00 | 0.00 | 0.00 | 65 | 1013.7 |
| 20260506031336 | 20 | 163 | 1.6 | 4.8 | 0.00 | 0.00 | 0.00 | 64 | 1013.6 |
| 20260506030320 | 20 | 92 | 0.0 | 3.2 | 0.00 | 0.00 | 0.00 | 63 | 1013.6 |
| 20260506025322 | 21 | 204 | 0.0 | 3.2 | 0.00 | 0.00 | 0.00 | 63 | 1013.7 |
| 20260506024326 | 21 | 175 | 1.6 | 3.2 | 0.00 | 0.00 | 0.00 | 62 | 1013.7 |
| 20260506023331 | 21 | 152 | 1.6 | 3.2 | 0.00 | 0.00 | 0.00 | 61 | 1013.6 |
| 20260506022317 | 21 | 140 | 1.6 | 3.2 | 0.00 | 0.00 | 0.00 | 61 | 1013.7 |
| 20260506021330 | 21 | 184 | 0.0 | 1.6 | 0.00 | 0.00 | 0.00 | 61 | 1013.5 |
| 20260506020335 | 21 | 236 | 0.0 | 6.4 | 0.00 | 0.00 | 0.00 | 60 | 1013.5 |
| 20260506015336 | 21 | 67 | 0.0 | 3.2 | 0.00 | 0.00 | 0.00 | 60 | 1013.4 |
| 20260506014321 | 21 | 98 | 0.0 | 1.6 | 0.00 | 0.00 | 0.00 | 60 | 1013.4 |
| 20260506013322 | 21 | 98 | 0.0 | 3.2 | 0.00 | 0.00 | 0.00 | 59 | 1013.3 |
| 20260506012346 | 21 | 98 | 1.6 | 4.8 | 0.00 | 0.00 | 0.00 | 58 | 1013.0 |
| 20260506011334 | 21 | 124 | 0.0 | 1.6 | 0.00 | 0.00 | 0.00 | 58 | 1013.0 |
| 20260506010337 | 22 | 148 | 0.0 | 1.6 | 0.00 | 0.00 | 0.00 | 56 | 1013.0 |
| 20260506005320 | 22 | 148 | 0.0 | 3.2 | 0.00 | 0.00 | 0.00 | 56 | 1012.8 |
| 20260506004344 | 22 | 165 | 1.6 | 4.8 | 0.00 | 0.00 | 0.00 | 55 | 1012.8 |
| 20260506003328 | 22 | 150 | 0.0 | 1.6 | 0.00 | 0.00 | 0.00 | 54 | 1012.7 |
| 20260506002331 | 23 | 150 | 0.0 | 3.2 | 0.00 | 0.00 | 0.00 | 53 | 1012.8 |
| 20260506001339 | 23 | 173 | 0.0 | 3.2 | 0.00 | 0.00 | 0.00 | 52 | 1012.6 |
| 20260506000338 | 23 | 180 | 0.0 | 4.8 | 0.00 | 0.00 | 0.00 | 52 | 1012.6 |
| 20260505235403 | 23 | 161 | 1.6 | 4.8 | 0.00 | 0.00 | 0.00 | 50 | 1012.6 |
| 20260505234325 | 23 | 158 | 0.0 | 4.8 | 0.00 | 0.00 | 0.00 | 50 | 1012.6 |
| 20260505233329 | 24 | 173 | 1.6 | 3.2 | 0.00 | 0.00 | 0.00 | 49 | 1012.5 |
| 20260505232316 | 24 | 163 | 1.6 | 4.8 | 0.00 | 0.00 | 0.00 | 50 | 1012.5 |
| 20260505231357 | 24 | 218 | 1.6 | 4.8 | 0.00 | 0.00 | 0.00 | 48 | 1012.5 |
| 20260505230320 | 24 | 168 | 0.0 | 3.2 | 0.00 | 0.00 | 0.00 | 48 | 1012.5 |
| 20260505225321 | 25 | 195 | 0.0 | 4.8 | 0.00 | 0.00 | 0.00 | 48 | 1012.6 |
| 20260505224344 | 25 | 205 | 1.6 | 3.2 | 0.00 | 0.00 | 0.00 | 46 | 1012.7 |
| 20260505223328 | 25 | 221 | 1.6 | 8.0 | 0.00 | 0.00 | 0.00 | 45 | 1012.6 |
| 20260505222332 | 25 | 165 | 4.8 | 11.3 | 0.00 | 0.00 | 0.00 | 44 | 1012.6 |
| 20260505221319 | 26 | 170 | 1.6 | 8.0 | 0.00 | 0.00 | 0.00 | 44 | 1012.5 |
| 20260505220338 | 26 | 186 | 4.8 | 11.3 | 0.00 | 0.00 | 0.00 | 43 | 1012.3 |
| 20260505215322 | 26 | 271 | 1.6 | 8.0 | 0.00 | 0.00 | 0.00 | 45 | 1012.4 |
| 20260505214326 | 26 | 163 | 3.2 | 8.0 | 0.00 | 0.00 | 0.00 | 43 | 1012.3 |
| 20260505213329 | 26 | 138 | 3.2 | 12.9 | 0.00 | 0.00 | 0.00 | 41 | 1012.3 |
| 20260505212333 | 26 | 205 | 1.6 | 9.7 | 0.00 | 0.00 | 0.00 | 42 | 1012.4 |
| 20260505211400 | 26 | 169 | 1.6 | 8.0 | 0.00 | 0.00 | 0.00 | 39 | 1012.5 |
| 20260505210344 | 26 | 191 | 0.0 | 4.8 | 0.00 | 0.00 | 0.00 | 37 | 1012.4 |
| 20260505205327 | 26 | 213 | 1.6 | 6.4 | 0.00 | 0.00 | 0.00 | 36 | 1012.3 |
| 20260505204350 | 27 | 136 | 3.2 | 8.0 | 0.00 | 0.00 | 0.00 | 36 | 1012.3 |
| 20260505203348 | 27 | 166 | 1.6 | 16.1 | 0.00 | 0.00 | 0.00 | 37 | 1012.3 |
| 20260505202317 | 27 | 211 | 3.2 | 8.0 | 0.00 | 0.00 | 0.00 | 35 | 1012.2 |
| 20260505201323 | 27 | 208 | 1.6 | 12.9 | 0.00 | 0.00 | 0.00 | 33 | 1012.3 |
| 20260505200327 | 27 | 192 | 4.8 | 11.3 | 0.00 | 0.00 | 0.00 | 33 | 1012.4 |
| 20260505195332 | 27 | 186 | 3.2 | 6.4 | 0.00 | 0.00 | 0.00 | 35 | 1012.5 |
| 20260505194335 | 27 | 107 | 3.2 | 6.4 | 0.00 | 0.00 | 0.00 | 35 | 1012.5 |
| 20260505193334 | 27 | 140 | 1.6 | 6.4 | 0.00 | 0.00 | 0.00 | 33 | 1012.6 |
| 20260505192334 | 27 | 157 | 3.2 | 12.9 | 0.00 | 0.00 | 0.00 | 33 | 1012.8 |
| 20260505191339 | 27 | 188 | 1.6 | 8.0 | 0.00 | 0.00 | 0.00 | 32 | 1012.9 |
| 20260505190342 | 27 | 300 | 1.6 | 4.8 | 0.00 | 0.00 | 0.00 | 33 | 1013.1 |
| 20260505185324 | 27 | 164 | 4.8 | 8.0 | 0.00 | 0.00 | 0.00 | 34 | 1013.3 |
| 20260505184327 | 27 | 166 | 3.2 | 8.0 | 0.00 | 0.00 | 0.00 | 33 | 1013.4 |
| 20260505183329 | 27 | 192 | 3.2 | 12.9 | 0.00 | 0.00 | 0.00 | 35 | 1013.5 |
| 20260505182327 | 27 | 177 | 3.2 | 8.0 | 0.00 | 0.00 | 0.00 | 36 | 1013.6 |
| 20260505181334 | 27 | 178 | 1.6 | 11.3 | 0.00 | 0.00 | 0.00 | 34 | 1014.2 |
| 20260505180339 | 27 | 194 | 4.8 | 11.3 | 0.00 | 0.00 | 0.00 | 34 | 1013.9 |
| 20260505175343 | 27 | 174 | 3.2 | 11.3 | 0.00 | 0.00 | 0.00 | 34 | 1014.0 |
| 20260505174344 | 27 | 233 | 3.2 | 11.3 | 0.00 | 0.00 | 0.00 | 34 | 1014.1 |
| 20260505173346 | 27 | 301 | 1.6 | 8.0 | 0.00 | 0.00 | 0.00 | 36 | 1014.1 |
| 20260505172329 | 27 | 176 | 1.6 | 9.7 | 0.00 | 0.00 | 0.00 | 40 | 1014.1 |
| 20260505171317 | 27 | 176 | 1.6 | 6.4 | 0.00 | 0.00 | 0.00 | 37 | 1014.3 |
| 20260505170340 | 27 | 236 | 1.6 | 8.0 | 0.00 | 0.00 | 0.00 | 38 | 1014.3 |
| 20260505165341 | 26 | 217 | 1.6 | 6.4 | 0.00 | 0.00 | 0.00 | 41 | 1014.3 |
| 20260505164322 | 26 | 150 | 3.2 | 6.4 | 0.00 | 0.00 | 0.00 | 43 | 1014.4 |
| 20260505163351 | 26 | 282 | 1.6 | 8.0 | 0.00 | 0.00 | 0.00 | 44 | 1014.7 |
| 20260505162319 | 26 | 85 | 3.2 | 6.4 | 0.00 | 0.00 | 0.00 | 47 | 1014.8 |
| 20260505161325 | 26 | 157 | 1.6 | 3.2 | 0.00 | 0.00 | 0.00 | 48 | 1014.9 |
| 20260505160327 | 26 | 192 | 1.6 | 4.8 | 0.00 | 0.00 | 0.00 | 49 | 1015.0 |
| 20260505153333 | 25 | 181 | 1.6 | 4.8 | 0.00 | 0.00 | 0.00 | 55 | 1015.3 |
| 20260505152334 | 24 | 248 | 1.6 | 4.8 | 0.00 | 0.00 | 0.00 | 53 | 1015.4 |
| 20260505151316 | 24 | 257 | 1.6 | 3.2 | 0.00 | 0.00 | 0.00 | 55 | 1015.3 |
| 20260505150335 | 23 | 182 | 3.2 | 4.8 | 0.00 | 0.00 | 0.00 | 52 | 1015.2 |
| 20260505140329 | 21 | 146 | 0.0 | 0.0 | 0.00 | 0.00 | 0.00 | 59 | 1014.9 |
| 20260505124345 | 17 | 184 | 0.0 | 0.0 | 0.00 | 0.00 | 0.00 | 77 | 1015.1 |
| 20260505123342 | 16 | 155 | 0.0 | 0.0 | 0.00 | 0.00 | 0.00 | 80 | 1015.1 |
| 20260505122323 | 15 | 155 | 0.0 | 0.0 | 0.00 | 0.00 | 0.00 | 80 | 1015.1 |
| 20260505121359 | 15 | 84 | 0.0 | 0.0 | 0.00 | 0.00 | 0.00 | 82 | 1015.0 |
| 20260505120341 | 14 | 148 | 0.0 | 0.0 | 0.00 | 0.00 | 0.00 | 83 | 1014.9 |
| 20260505115321 | 14 | 143 | 0.0 | 0.0 | 0.00 | 0.00 | 0.00 | 84 | 1014.8 |
| 20260505114326 | 13 | 143 | 0.0 | 0.0 | 0.00 | 0.00 | 0.00 | 84 | 1014.8 |
| 20260505113327 | 13 | 143 | 0.0 | 0.0 | 0.00 | 0.00 | 0.00 | 85 | 1014.7 |
| 20260505112329 | 13 | 143 | 0.0 | 0.0 | 0.00 | 0.00 | 0.00 | 85 | 1014.7 |
| 20260505111334 | 13 | 142 | 0.0 | 0.0 | 0.00 | 0.00 | 0.00 | 85 | 1014.5 |
| 20260505110335 | 12 | 142 | 0.0 | 0.0 | 0.00 | 0.00 | 0.00 | 86 | 1014.6 |
| 20260505101346 | 12 | 142 | 0.0 | 0.0 | 0.00 | 0.00 | 0.00 | 84 | 1014.4 |
| 20260505100326 | 13 | 142 | 0.0 | 0.0 | 0.00 | 0.00 | 0.00 | 83 | 1014.3 |
| 20260505095330 | 13 | 142 | 0.0 | 0.0 | 0.00 | 0.00 | 0.00 | 83 | 1014.3 |
| 20260505094334 | 13 | 142 | 0.0 | 0.0 | 0.00 | 0.00 | 0.00 | 82 | 1014.2 |
| 20260505093336 | 13 | 142 | 0.0 | 0.0 | 0.00 | 0.00 | 0.00 | 81 | 1014.1 |
| 20260505092322 | 13 | 142 | 0.0 | 0.0 | 0.00 | 0.00 | 0.00 | 81 | 1014.1 |
| 20260505091352 | 13 | 142 | 0.0 | 0.0 | 0.00 | 0.00 | 0.00 | 80 | 1014.1 |
| 20260505090334 | 14 | 142 | 0.0 | 0.0 | 0.00 | 0.00 | 0.00 | 79 | 1014.2 |
| 20260505085401 | 14 | 142 | 0.0 | 0.0 | 0.00 | 0.00 | 0.00 | 79 | 1014.2 |
| 20260505084344 | 14 | 142 | 0.0 | 0.0 | 0.00 | 0.00 | 0.00 | 78 | 1014.1 |
| 20260505083347 | 15 | 142 | 0.0 | 0.0 | 0.00 | 0.00 | 0.00 | 78 | 1014.1 |
| 20260505082329 | 15 | 142 | 0.0 | 0.0 | 0.00 | 0.00 | 0.00 | 77 | 1014.2 |
| 20260505081339 | 15 | 142 | 0.0 | 0.0 | 0.00 | 0.00 | 0.00 | 76 | 1014.1 |
| 20260505080323 | 15 | 142 | 0.0 | 0.0 | 0.00 | 0.00 | 0.00 | 76 | 1014.2 |
| 20260505075323 | 15 | 142 | 0.0 | 0.0 | 0.00 | 0.00 | 0.00 | 76 | 1014.0 |
| 20260505074326 | 15 | 142 | 0.0 | 0.0 | 0.00 | 0.00 | 0.00 | 75 | 1014.0 |
| 20260505073330 | 15 | 142 | 0.0 | 0.0 | 0.00 | 0.00 | 0.00 | 75 | 1013.9 |
| 20260505072316 | 15 | 128 | 0.0 | 0.0 | 0.00 | 0.00 | 0.00 | 75 | 1013.9 |
| 20260505071327 | 15 | 128 | 0.0 | 0.0 | 0.00 | 0.00 | 0.00 | 74 | 1013.7 |
| 20260505070333 | 15 | 128 | 0.0 | 0.0 | 0.00 | 0.00 | 0.00 | 74 | 1013.5 |
| 20260505065332 | 15 | 128 | 0.0 | 0.0 | 0.00 | 0.00 | 0.00 | 74 | 1013.6 |
| 20260505064402 | 15 | 128 | 0.0 | 0.0 | 0.00 | 0.00 | 0.00 | 74 | 1013.6 |
| 20260505063323 | 15 | 128 | 0.0 | 0.0 | 0.00 | 0.00 | 0.00 | 74 | 1013.5 |
| 20260505062325 | 15 | 123 | 0.0 | 0.0 | 0.00 | 0.00 | 0.00 | 73 | 1013.6 |
| 20260505061331 | 15 | 123 | 0.0 | 0.0 | 0.00 | 0.00 | 0.00 | 72 | 1013.6 |
| 20260505060334 | 15 | 123 | 0.0 | 0.0 | 0.00 | 0.00 | 0.00 | 70 | 1013.7 |